FW2360 McClellanville SC US current weather conditions

sailwx.info

Wind from 143

Air temperature 17.8° C
Dewpoint 16.5° C

Last reported at 2019-Dec-09 22:01 UTC.
Time now 2019-Dec-09 23:07 UTC

Location: N 33°11' W 079°24'.
View on Google Maps.

See reports from other nearby stations

  
Tides and Currents Weather Stations Pressure Air Temp Water Temp Dewpoint Dewpoint Depression Visibility Wind Speed Wind Dir Waves Ship Positions
date/time (UTC)wind fromknots sea level pressurealtimeterstation pressurevisibilityair tempwater tempwave heightnotes
2019-Dec-09 22:01 143 17.8
2019-Dec-09 21:45 142 17.8
2019-Dec-09 21:30 173 18.3
2019-Dec-09 21:15 231 18.9
2019-Dec-09 21:00 124 18.9
2019-Dec-09 20:45 236 18.9
2019-Dec-09 20:31 157 19.4
2019-Dec-09 20:16 128 19.4
2019-Dec-09 20:00 239 19.4
2019-Dec-09 19:45 127 19.4
2019-Dec-09 19:30 141 19.4
2019-Dec-09 19:15 129 18.9
2019-Dec-09 19:00 092 17.8
2019-Dec-09 18:45 094 0 gusting 3 17.2
2019-Dec-09 18:30 083 16.1
2019-Dec-09 18:15 064 16.1
2019-Dec-09 18:02 094 2 gusting 3 15.6
2019-Dec-09 17:46 091 15.0
2019-Dec-09 17:17 068 14.4
2019-Dec-09 17:03 058 13.9
2019-Dec-09 16:46 090 13.9
2019-Dec-09 16:31 080 13.3
2019-Dec-09 16:16 084 12.8
2019-Dec-09 16:01 086 12.8
2019-Dec-09 15:46 098 1 gusting 2 12.2
2019-Dec-09 15:31 046 0 gusting 2 11.7
2019-Dec-09 15:16 348 11.7
2019-Dec-09 15:01 347 11.7
2019-Dec-09 14:46 347 11.1
2019-Dec-09 14:30 342 0 gusting 1 11.1
2019-Dec-09 14:15 010 0 gusting 1 11.1
2019-Dec-09 14:00 005 11.1
2019-Dec-09 13:45 072 0 gusting 1 10.6
2019-Dec-09 13:30 090 10.6
2019-Dec-09 13:15 060 0 gusting 2 10.0
2019-Dec-09 13:00 066 10.0
2019-Dec-09 12:45 084 10.0
2019-Dec-09 12:30 068 9.4
2019-Dec-09 12:15 017 9.4
2019-Dec-09 12:00 032 1 gusting 3 10.0
2019-Dec-09 11:45 067 0 gusting 5 10.0
2019-Dec-09 11:30 093 2 gusting 3 10.0
2019-Dec-09 11:15 037 1 gusting 2 10.0
2019-Dec-09 11:00 073 0 gusting 2 10.0
2019-Dec-09 10:45 085 1 gusting 5 10.0
2019-Dec-09 10:30 085 3 gusting 6 9.4
2019-Dec-09 10:15 066 2 gusting 4 9.4
2019-Dec-09 10:02 077 1 gusting 3 9.4
2019-Dec-09 09:47 352 9.4
2019-Dec-09 09:32 013 9.4
2019-Dec-09 09:17 045 1 gusting 3 9.4
2019-Dec-09 09:02 048 1 gusting 4 9.4
2019-Dec-09 08:47 049 2 gusting 4 9.4
2019-Dec-09 08:31 072 0 gusting 2 9.4
2019-Dec-09 08:17 013 9.4
2019-Dec-09 08:01 357 0 gusting 2 9.4
2019-Dec-09 07:47 338 0 gusting 2 9.4
2019-Dec-09 07:32 345 0 gusting 2 9.4
2019-Dec-09 07:16 354 0 gusting 2 9.4
2019-Dec-09 07:02 028 0 gusting 3 9.4
2019-Dec-09 06:46 056 3 gusting 4 9.4
2019-Dec-09 06:31 025 1 gusting 3 9.4
2019-Dec-09 06:16 011 9.4
2019-Dec-09 06:01 072 9.4
2019-Dec-09 05:46 072 9.4
2019-Dec-09 05:31 073 0 gusting 1 8.9
2019-Dec-09 05:15 079 8.9
2019-Dec-09 05:00 020 0 gusting 1 8.9
2019-Dec-09 04:46 047 8.9
2019-Dec-09 04:30 346 8.9
2019-Dec-09 04:16 354 8.9
2019-Dec-09 04:00 347 8.9
2019-Dec-09 03:45 359 9.4
2019-Dec-09 03:31 048 0 gusting 3 9.4
2019-Dec-09 03:15 049 1 gusting 4 9.4
2019-Dec-09 03:00 035 1 gusting 4 9.4
2019-Dec-09 02:46 349 2 gusting 4 9.4
2019-Dec-09 02:30 323 9.4
2019-Dec-09 02:15 335 2 gusting 3 9.4
2019-Dec-09 02:00 340 0 gusting 3 9.4
2019-Dec-09 01:45 345 9.4
2019-Dec-09 01:30 359 1 gusting 4 9.4
2019-Dec-09 01:15 019 2 gusting 4 9.4
2019-Dec-09 01:00 280 1 gusting 5 9.4
2019-Dec-09 00:45 348 2 gusting 6 9.4
2019-Dec-09 00:30 032 2 gusting 6 9.4
2019-Dec-09 00:15 343 3 gusting 8 9.4
2019-Dec-09 00:00 355 2 gusting 5 10.0
2019-Dec-08 23:46 315 9.4
2019-Dec-08 23:30 004 0 gusting 6 10.0
2019-Dec-08 23:15 238 10.0
2019-Dec-08 23:00 340 1 gusting 7 10.0
2019-Dec-08 22:46 020 2 gusting 6 10.0
2019-Dec-08 22:30 335 0 gusting 3 10.0
2019-Dec-08 22:15 250 10.0
2019-Dec-08 22:00 020 1 gusting 6 10.6
2019-Dec-08 21:45 333 2 gusting 4 10.6
2019-Dec-08 21:30 340 1 gusting 7 10.6
2019-Dec-08 21:15 016 2 gusting 7 10.6
2019-Dec-08 21:00 026 3 gusting 6 10.6
2019-Dec-08 20:45 318 2 gusting 6 10.0
2019-Dec-08 20:30 028 3 gusting 7 10.0
2019-Dec-08 20:16 020 3 gusting 7 10.0
2019-Dec-08 20:02 335 3 gusting 7 10.0
2019-Dec-08 19:46 026 4 gusting 9 10.6
2019-Dec-08 19:32 320 2 gusting 6 11.7
2019-Dec-08 19:16 336 3 gusting 6 12.2
2019-Dec-08 19:03 340 5 gusting 11 12.8
2019-Dec-08 18:46 335 6 gusting 9 12.8
2019-Dec-08 18:31 020 3 gusting 8 12.8
2019-Dec-08 18:16 003 2 gusting 6 12.8
2019-Dec-08 18:01 004 3 gusting 8 12.8
2019-Dec-08 17:46 009 4 gusting 10 12.8
2019-Dec-08 17:31 356 5 gusting 9 12.2
2019-Dec-08 17:15 333 4 gusting 9 11.7
2019-Dec-08 17:01 001 4 gusting 8 11.1
2019-Dec-08 16:45 343 4 gusting 10 10.6
2019-Dec-08 16:30 351 5 gusting 8 10.0
2019-Dec-08 16:00 359 4 gusting 9 8.9
2019-Dec-08 15:45 347 4 gusting 7 8.3
2019-Dec-08 15:30 031 4 gusting 8 7.8
2019-Dec-08 15:15 003 4 gusting 9 7.2
2019-Dec-08 15:00 040 4 gusting 7 6.7
2019-Dec-08 14:45 045 6 gusting 11 6.7
2019-Dec-08 14:30 049 4 gusting 9 6.1
2019-Dec-08 14:15 016 6 gusting 11 5.6
2019-Dec-08 14:00 359 2 gusting 8 5.6
2019-Dec-08 13:45 358 3 gusting 6 4.4
2019-Dec-08 13:30 008 2 gusting 4 4.4
2019-Dec-08 13:15 039 4 gusting 6 3.9
2019-Dec-08 13:00 307 2 gusting 6 3.3
2019-Dec-08 12:45 008 2 gusting 5 3.3
2019-Dec-08 12:30 003 2 gusting 4 3.3
2019-Dec-08 12:15 338 1 gusting 4 3.3
2019-Dec-08 12:01 333 3 gusting 6 3.3
2019-Dec-08 11:46 345 2 gusting 6 3.3
2019-Dec-08 11:31 351 2 gusting 5 3.9
2019-Dec-08 11:16 352 2 gusting 5 3.9
2019-Dec-08 11:01 015 3 gusting 6 4.4
2019-Dec-08 10:46 019 2 gusting 6 4.4
2019-Dec-08 10:31 358 2 gusting 5 4.4
2019-Dec-08 10:17 334 2 gusting 4 4.4
2019-Dec-08 10:02 356 2 gusting 5 4.4
2019-Dec-08 09:47 039 2 gusting 5 5.0
2019-Dec-08 09:31 353 1 gusting 4 5.0
2019-Dec-08 09:17 023 3 gusting 6 5.6
2019-Dec-08 09:00 027 4 gusting 6 5.6
2019-Dec-08 08:46 037 3 gusting 6 5.6
2019-Dec-08 08:30 044 3 gusting 6 6.1
2019-Dec-08 08:16 035 2 gusting 6 6.1
2019-Dec-08 08:01 359 1 gusting 4 6.1
2019-Dec-08 07:46 328 1 gusting 3 6.7
2019-Dec-08 07:30 027 1 gusting 10 7.2
2019-Dec-08 07:15 036 2 gusting 6 7.2
2019-Dec-08 07:01 027 2 gusting 5 7.2
2019-Dec-08 06:46 046 4 gusting 6 7.8
2019-Dec-08 06:30 054 4 gusting 6 7.8
2019-Dec-08 06:15 056 2 gusting 5 7.8
2019-Dec-08 06:00 051 2 gusting 6 7.8
2019-Dec-08 05:45 036 2 gusting 5 7.8
2019-Dec-08 05:30 006 1 gusting 4 7.8
2019-Dec-08 05:02 357 2 gusting 4 8.3
2019-Dec-08 04:46 043 1 gusting 5 8.3
2019-Dec-08 04:32 039 2 gusting 6 8.3
2019-Dec-08 04:17 040 3 gusting 7 8.3
2019-Dec-08 04:01 023 2 gusting 6 8.3
2019-Dec-08 03:46 351 1 gusting 4 8.9
2019-Dec-08 03:31 341 0 gusting 5 8.9
2019-Dec-08 03:16 336 1 gusting 4 8.9
2019-Dec-08 03:01 051 1 gusting 4 9.4
2019-Dec-08 02:46 016 1 gusting 3 9.4
2019-Dec-08 02:31 002 1 gusting 3 9.4
2019-Dec-08 02:16 343 1 gusting 3 9.4
2019-Dec-08 02:01 333 1 gusting 3 10.0
2019-Dec-08 01:46 340 0 gusting 3 10.6
2019-Dec-08 01:31 029 0 gusting 4 10.6
2019-Dec-08 01:16 346 1 gusting 3 10.6
2019-Dec-08 01:01 338 0 gusting 1 10.6
2019-Dec-08 00:46 020 11.1
2019-Dec-08 00:31 026 1 gusting 2 11.1
2019-Dec-08 00:15 022 0 gusting 1 11.1
2019-Dec-08 00:00 039 0 gusting 2 11.1
2019-Dec-07 23:45 040 0 gusting 2 11.1
2019-Dec-07 23:30 041 0 gusting 2 11.7
2019-Dec-07 23:15 033 11.7
2019-Dec-07 23:01 021 0 gusting 1 11.7